OE3UKW Weather Reports


time (UTC)temp
F
wind
direction
speed
knots
gust
knots
rain 1hr
in
rain 24hr
in
rain mn
in
humidity
%
barometer
mb
20260506190112 67 172 12.2 21.7 0.00 0.00 0.00 48 1006.1
20260506185112 67 161 11.3 20.0 0.00 0.00 0.00 47 1006.0
20260506184112 68 169 13.0 20.9 0.00 0.00 0.00 46 1005.9
20260506183113 68 180 13.0 18.2 0.00 0.00 0.00 46 1005.6
20260506182112 68 173 13.0 17.4 0.00 0.00 0.00 46 1005.5
20260506181112 69 167 6.1 14.8 0.00 0.00 0.00 46 1005.6
20260506180112 69 147 12.2 17.4 0.00 0.00 0.00 45 1005.3
20260506175113 69 173 8.7 17.4 0.00 0.00 0.00 45 1005.3
20260506174112 70 178 10.4 17.4 0.00 0.00 0.00 44 1005.4
20260506173112 70 159 10.4 16.5 0.00 0.00 0.00 43 1005.3
20260506172112 71 170 15.6 21.7 0.00 0.00 0.00 42 1005.2
20260506171112 71 182 11.3 26.9 0.00 0.00 0.00 40 1005.3
20260506170112 72 180 10.4 16.5 0.00 0.00 0.00 39 1005.4
20260506165112 72 172 11.3 20.0 0.00 0.00 0.00 38 1005.5
20260506164112 73 156 10.4 19.1 0.00 0.00 0.00 37 1005.4
20260506163112 73 177 16.5 26.1 0.00 0.00 0.00 36 1005.5
20260506162112 74 164 18.2 28.7 0.00 0.00 0.00 36 1005.5
20260506161112 74 178 12.2 30.4 0.00 0.00 0.00 36 1005.7
20260506160112 75 177 20.0 26.1 0.00 0.00 0.00 35 1005.7
20260506155112 75 191 16.5 26.1 0.00 0.00 0.00 35 1005.8
20260506154112 75 177 17.4 21.7 0.00 0.00 0.00 35 1005.8
20260506153112 75 169 13.0 19.1 0.00 0.00 0.00 35 1005.9
20260506152112 75 181 11.3 20.0 0.00 0.00 0.00 34 1005.9
20260506151112 76 138 14.8 21.7 0.00 0.00 0.00 33 1005.9
20260506150112 76 182 13.0 22.6 0.00 0.00 0.00 32 1005.9
20260506145112 76 167 13.9 24.3 0.00 0.00 0.00 33 1005.9
20260506144111 76 140 15.6 26.9 0.00 0.00 0.00 33 1006.2
20260506143111 78 161 15.6 22.6 0.00 0.00 0.00 32 1006.2
20260506142112 77 136 17.4 24.3 0.00 0.00 0.00 32 1006.2
20260506141112 78 147 13.0 25.2 0.00 0.00 0.00 32 1006.3
20260506140112 78 129 13.9 25.2 0.00 0.00 0.00 31 1006.5
20260506135112 77 159 15.6 22.6 0.00 0.00 0.00 31 1006.7
20260506134112 75 152 15.6 22.6 0.00 0.00 0.00 33 1006.8
20260506133111 75 151 13.0 20.0 0.00 0.00 0.00 32 1006.8
20260506132111 75 160 11.3 20.0 0.00 0.00 0.00 31 1006.8
20260506131111 76 126 13.0 17.4 0.00 0.00 0.00 32 1007.0
20260506130111 76 157 14.8 25.2 0.00 0.00 0.00 31 1007.0
20260506125111 76 140 12.2 24.3 0.00 0.00 0.00 31 1007.2
20260506124112 76 171 12.2 20.0 0.00 0.00 0.00 31 1007.5
20260506123111 77 182 14.8 20.9 0.00 0.00 0.00 31 1007.7
20260506122111 77 132 15.6 23.5 0.00 0.00 0.00 32 1007.8
20260506121111 77 155 13.0 26.1 0.00 0.00 0.00 31 1007.8
20260506120111 76 167 13.9 20.9 0.00 0.00 0.00 34 1008.1
20260506115111 76 153 15.6 25.2 0.00 0.00 0.00 35 1008.0
20260506114111 75 175 13.0 21.7 0.00 0.00 0.00 34 1008.1
20260506113111 77 167 10.4 20.9 0.00 0.00 0.00 34 1008.2
20260506112111 77 160 11.3 20.0 0.00 0.00 0.00 36 1008.3
20260506111111 76 115 9.6 20.0 0.00 0.00 0.00 36 1008.5
20260506110111 76 184 12.2 20.9 0.00 0.00 0.00 36 1008.5
20260506105111 76 138 15.6 22.6 0.00 0.00 0.00 37 1008.5
20260506104111 76 171 10.4 17.4 0.00 0.00 0.00 37 1008.6
20260506103111 76 136 11.3 19.1 0.00 0.00 0.00 37 1008.8
20260506102111 76 140 13.9 19.1 0.00 0.00 0.00 36 1009.0
20260506101111 77 360 11.3 17.4 0.00 0.00 0.00 39 1009.0
20260506100111 76 153 8.7 17.4 0.00 0.00 0.00 38 1009.1
20260506095111 76 140 8.7 13.9 0.00 0.00 0.00 38 1009.1
20260506094111 75 149 10.4 13.0 0.00 0.00 0.00 38 1009.1
20260506093111 76 125 8.7 14.8 0.00 0.00 0.00 38 1009.3
20260506092111 76 130 6.1 9.6 0.00 0.00 0.00 38 1009.3
20260506091111 75 123 7.8 11.3 0.00 0.00 0.00 38 1009.3
20260506090110 75 134 7.8 10.4 0.00 0.00 0.00 36 1009.4
20260506085110 75 163 5.2 11.3 0.00 0.00 0.00 37 1009.4
20260506084111 75 130 1.7 10.4 0.00 0.00 0.00 36 1009.5
20260506083111 74 172 3.5 7.8 0.00 0.00 0.00 38 1009.6
20260506082110 73 132 1.7 6.1 0.00 0.00 0.00 38 1009.5
20260506081111 73 179 2.6 5.2 0.00 0.00 0.00 39 1009.7
20260506080111 73 190 3.5 7.8 0.00 0.00 0.00 39 1009.8
20260506073110 70 257 0.9 6.1 0.00 0.00 0.00 45 1009.7
20260506072110 69 255 4.3 7.8 0.00 0.00 0.00 46 1009.9
20260506071110 69 233 4.3 7.8 0.00 0.00 0.00 45 1009.9
20260506070110 70 226 6.1 9.6 0.00 0.00 0.00 45 1009.9
20260506062110 66 256 8.7 12.2 0.00 0.00 0.00 51 1009.9
20260506061110 66 232 6.1 13.0 0.00 0.00 0.00 52 1009.7
20260506060110 64 224 9.6 13.0 0.00 0.00 0.00 54 1010.0
20260506051110 56 120 1.7 3.5 0.00 0.00 0.00 67 1009.8
20260506050110 55 129 1.7 5.2 0.00 0.00 0.00 67 1009.7
20260506045110 55 136 2.6 3.5 0.00 0.00 0.00 67 1009.5
20260506044110 54 142 1.7 2.6 0.00 0.00 0.00 67 1009.5
20260506043110 54 142 0.9 2.6 0.00 0.00 0.00 68 1009.4
20260506042110 53 144 3.5 5.2 0.00 0.00 0.00 67 1009.3
20260506041110 53 124 0.0 1.7 0.00 0.00 0.00 67 1009.2
20260506040110 53 124 2.6 4.3 0.00 0.00 0.00 67 1009.0
20260506035110 53 124 3.5 4.3 0.00 0.00 0.00 67 1009.0
20260506034110 53 127 3.5 6.1 0.00 0.00 0.00 67 1008.9
20260506033110 53 135 4.3 7.0 0.00 0.00 0.00 67 1008.9
20260506032110 53 105 0.0 3.5 0.00 0.00 0.00 67 1008.9
20260506031110 52 135 0.9 2.6 0.00 0.00 0.00 67 1009.0
20260506030110 52 159 3.5 6.1 0.00 0.00 0.00 67 1009.1
20260506025110 52 194 1.7 2.6 0.00 0.00 0.00 67 1009.0
20260506024109 52 204 1.7 4.3 0.00 0.00 0.00 67 1009.1
20260506023110 52 213 2.6 3.5 0.00 0.00 0.00 67 1009.1
20260506022109 52 200 0.9 3.5 0.00 0.00 0.00 66 1009.0
20260506021109 52 197 2.6 4.3 0.00 0.00 0.00 65 1008.9
20260506020109 53 170 0.0 0.0 0.00 0.00 0.00 64 1008.9
20260506015109 53 169 0.9 4.3 0.00 0.00 0.00 64 1008.8
20260506014109 53 171 2.6 4.3 0.00 0.00 0.00 64 1008.9
20260506013109 54 163 0.9 4.3 0.00 0.00 0.00 63 1008.9
20260506012109 54 169 1.7 3.5 0.00 0.00 0.00 63 1008.9
20260506011109 54 169 2.6 4.3 0.00 0.00 0.00 62 1008.8
20260506005112 55 132 2.6 2.6 0.00 0.00 0.00 60 1008.6
20260506004111 56 132 0.0 0.0 0.00 0.00 0.00 60 1008.5
20260506003111 56 133 0.0 0.0 0.00 0.00 0.00 61 1008.4
20260506002111 56 133 0.0 0.0 0.00 0.00 0.00 61 1008.3
20260506001111 56 132 0.0 1.7 0.00 0.00 0.00 61 1008.3
20260506000111 56 150 2.6 3.5 0.00 0.00 0.00 60 1008.0
20260505235111 56 153 0.0 0.0 0.00 0.00 0.00 60 1008.0
20260505234111 56 153 0.0 0.0 0.00 0.00 0.00 60 1007.9
20260505233111 56 153 0.0 0.0 0.00 0.00 0.00 59 1007.8
20260505232111 56 155 1.7 2.6 0.00 0.00 0.00 59 1007.7
20260505231111 57 144 0.9 2.6 0.00 0.00 0.00 57 1007.7
20260505230111 57 144 1.7 3.5 0.00 0.00 0.00 57 1007.5
20260505225111 58 157 2.6 4.3 0.00 0.00 0.00 56 1007.5
20260505224111 58 146 2.6 4.3 0.00 0.00 0.00 55 1007.3
20260505223111 59 121 3.5 6.1 0.00 0.00 0.00 55 1007.3
20260505222111 59 123 4.3 7.8 0.00 0.00 0.00 54 1007.0
20260505221111 60 169 4.3 7.8 0.00 0.00 0.00 54 1007.1
20260505220111 60 167 6.1 8.7 0.00 0.00 0.00 54 1007.0
20260505215111 60 147 6.1 9.6 0.00 0.00 0.00 53 1006.9
20260505214111 60 156 7.0 11.3 0.00 0.00 0.00 52 1006.8
20260505213111 61 136 7.0 10.4 0.00 0.00 0.00 51 1006.8
20260505212111 61 162 8.7 12.2 0.00 0.00 0.00 51 1006.9
20260505211111 62 142 7.0 10.4 0.00 0.00 0.00 50 1006.8
20260505210111 62 144 7.8 10.4 0.00 0.00 0.00 50 1006.9
20260505205111 62 140 7.8 11.3 0.00 0.00 0.00 49 1006.7
20260505204111 62 140 8.7 11.3 0.00 0.00 0.00 49 1006.7
20260505203111 63 153 6.1 9.6 0.00 0.00 0.00 49 1006.5
20260505202111 63 160 8.7 13.0 0.00 0.00 0.00 48 1006.6
20260505201111 63 148 9.6 14.8 0.00 0.00 0.00 48 1006.5
20260505200111 63 148 10.4 14.8 0.00 0.00 0.00 47 1006.4
20260505195111 64 153 7.8 11.3 0.00 0.00 0.00 47 1006.4
20260505194111 64 158 9.6 13.0 0.00 0.00 0.00 46 1006.3
20260505193110 64 138 9.6 13.0 0.00 0.00 0.00 46 1006.4
20260505192111 65 140 8.7 13.9 0.00 0.00 0.00 45 1006.5
20260505191110 65 150 7.8 13.9 0.00 0.00 0.00 44 1006.5